Location: Black Forest
(43.4794°N, 75.0081°W)
Time: 01:25:57
(UTC-05:00)

ISS - Visible Passes

Search period start: 22 December 2014 00:00
Search period end: 01 January 2015 00:00
Orbit: 404 x 414 km, 51.6° (Epoch: 21 December)

Date Brightness Start Highest point End Pass type
(mag) Time Alt. Az. Time Alt. Az. Time Alt. Az.
22 Dec -1.8 17:04:08 10° NW 17:06:50 23° NNE 17:09:31 10° ENE visible
22 Dec -1.6 18:40:32 10° NW 18:42:17 29° NW 18:42:17 29° NW visible
23 Dec -3.0 17:49:44 10° NW 17:52:56 46° NNE 17:53:54 34° ENE visible
23 Dec 0.2 19:26:35 10° WNW 19:26:41 11° W 19:26:41 11° W visible
24 Dec -2.4 16:58:55 10° NW 17:01:56 32° NNE 17:04:56 10° E visible
24 Dec -2.4 18:35:26 10° WNW 18:38:28 45° SW 18:38:28 45° SW visible
25 Dec -3.3 17:44:26 10° WNW 17:47:44 83° SSW 17:50:30 14° SE visible
25 Dec 0.1 19:22:57 10° WSW 19:23:18 11° WSW 19:23:18 11° WSW visible
26 Dec -0.6 18:30:37 10° W 18:33:03 19° SW 18:35:28 10° S visible
27 Dec -1.5 17:39:11 10° WNW 17:42:12 34° SW 17:45:12 10° SSE visible
29 Dec -0.1 17:34:27 10° W 17:36:21 15° SW 17:38:14 10° SSW visible
